星链-3150 (STARLINK-3150 )

导读 | 星芒AI

STARLINK-3150 是 SpaceX 星链计划中的一颗低轨通信卫星,属于第三代星链卫星(也称为 v1.5 或 Block V)。它于2023年发射,部署在约550公里高度的近地轨道上,旨在为全球用户提供高速互联网服务。该卫星采用先进的推进系统和激光通信技术,提升网络稳定性和数据传输效率。作为星链星座的一部分,STARLINK-3150 支持偏远地区的宽带接入,助力实现全球互联网覆盖目标。

基本信息
目录编号:
49452
目录名称:
STARLINK-3150
国际标识:
2021-104AW
轨道中心:
EARTH
卫星名称:
星链-3150
卫星全名:
星链-3150 (STARLINK-3150 )
卫星状态:
在轨 (已飞行1498 天)
发射日期:
2021-11-13 UTC
国别 :
美国 (US)
星等 :
--
轨道信息
数据来源 国际轨道数据 AOE轨道数据
星历时间 2025-12-19T09:19:53+0800
23小时前
查看轨道信息
2025-12-17T14:00:00+0800
2天前
查看轨道信息
半长轴 6917.882km 6917.872km
偏心率 0.000152 0.0001391
轨道倾角 53.217° 53.216°
近地点辐角 94.885° 79.332°
升交点赤经 221.140° 229.247°
平近点角 265.232° 188.405°
近地点 538.693km 538.774km
远地点 540.797km 540.7km
周期 95.438分钟 95.437分钟
每日圈数 15.088398 15.08843
详细信息
固有亮度:
5
最大亮度:
2.5
卫星平台:
Starlink v1.5
覆盖范围:
全球
运营商:
太空探索技术公司
运营商所在国:
美国
制造商(研发单位):
太空探索技术公司
制造商所在国:
美国
使用方式:
暂无
卫星简介
星链(Starlink)计划是由太空探索技术公司(SpaceX)提出的一个巨型低轨卫星互联网星座项目,计划在2019年至2024年间在太空搭建由约1.2万颗卫星组成的“星链”网络,其中1584颗将部署在地球上空550千米处的近地轨道,并从2020年开始工作。该卫星仍在工作。
2D轨道图
3D轨道图
轨道高度分析图
轨道倾角分析图
轨道综合分析图
查看轨道综合分析图